Location: Copper Mountain Observatory
(34.1350°N, 116.3120°W)
Time: 05:00:47
(UTC-08:00)

Daily predictions for brighter satellites

Satellite Brightness Start Highest point End
(mag) Time Altitude Azimuth Time Altitude Azimuth Time Altitude Azimuth
CZ-3 R/B 4.2 01:18:01 10° W 02:30:33 62° SSE 02:40:30 10° ESE
Cosmos 2333 Rocket 4.3 03:32:19 23° ESE 03:32:19 23° ESE 03:34:49 10° SE
Cosmos 2219 Rocket 4.0 03:52:59 23° SE 03:52:59 23° SE 03:55:05 10° SSE
Cosmos 2237 Rocket 2.5 04:18:04 63° ENE 04:18:04 63° ENE 04:23:38 10° SSE
SL-16 R/B 4.0 04:17:40 16° NNE 04:21:09 28° ENE 04:25:57 10° ESE
Cosmos 2297 Rocket 3.1 04:28:51 38° NNE 04:28:51 38° NNE 04:32:16 10° NNE
Tsikada Rocket 4.4 04:20:38 10° N 04:26:57 61° E 04:33:09 10° SSE
Cosmos 2227 Rocket 3.8 04:42:32 21° N 04:42:32 21° N 04:44:27 10° N
Cosmos 540 Rocket 3.7 04:38:29 49° NNE 04:39:43 67° ENE 04:44:46 10° SSE
OAO 2 Rocket 3.2 04:43:00 77° NE 04:43:00 77° NE 04:47:39 10° E
Meteor 1-4 Rocket 3.9 04:41:00 10° SSE 04:44:27 40° E 04:47:59 10° NNE
CZ-3 Stage 3 2.0 04:44:39 59° S 04:44:52 60° S 04:55:06 10° E
Cosmos 1725 Rocket 3.9 04:43:24 10° SSW 04:49:33 64° W 04:55:47 10° N
Cosmos 1864 Rocket 4.3 04:43:59 10° SSW 04:50:01 64° W 04:56:07 10° N
Meteor 1-21 Rocket 4.1 04:53:04 52° NW 04:54:13 64° W 04:59:42 10° S
Cosmos 1674 3.9 04:59:02 32° S 04:59:02 32° S 05:01:12 10° S
PSLV R/B 3.7 05:02:31 62° E 05:02:31 62° E 05:05:28 10° ENE
Cosmos 1980 3.9 05:04:36 44° W 05:04:53 44° WSW 05:10:11 10° S
BREEZE-M DEB (TANK) 3.3 05:04:47 48° W 05:05:48 59° SW 05:08:42 10° SSE
BREEZE-M DEB (TANK) 4.1 04:54:54 21° NW 05:06:19 79° NE 05:10:49 10° ESE
IUS-9 SRM-1 4.0 05:08:24 21° SW 05:10:43 29° SSW 05:13:14 10° SE
Cosmos 2221 4.2 05:06:56 10° SSE 05:10:54 35° E 05:14:51 10° NNE
Cosmos 2333 Rocket 3.1 05:14:24 29° WSW 05:14:24 29° WSW 05:18:44 10° SSW
Ariane Rocket 3.1 05:11:32 10° NNE 05:16:39 80° ESE 05:21:45 10° S
Cosmos 1461 3.4 05:16:58 37° SW 05:16:58 37° SW 05:20:25 10° S
Thor Agena Rocket 4.3 05:12:45 10° SSW 05:17:09 32° WSW 05:17:09 32° WSW
Cosmos 1328 3.7 05:21:11 10° N 05:25:11 89° W 05:29:10 10° S
Cosmos 1743 Rocket 3.7 05:23:57 24° NNW 05:26:16 47° W 05:30:28 10° SSW
DMSP B5D1-3 4.4 05:21:25 10° S 05:26:32 80° WSW 05:31:41 10° NNW
TELKOM 3 4.0 05:29:53 37° N 05:29:53 37° N 05:31:43 10° NE
Cosmos 2058 3.6 05:27:18 10° N 05:31:22 56° E 05:35:25 10° SSE
Cosmos 1842 Rocket 3.9 05:27:54 10° SSW 05:31:57 39° W 05:36:03 10° N
COSMO-SKYMED 1 2.8 05:28:09 10° S 05:32:19 46° W 05:35:37 16° NNW
Cosmos 2219 Rocket 4.0 05:34:47 12° WSW 05:34:47 12° WSW 05:35:44 10° SW
Atlas 2A Centaur Rocket 3.6 05:36:16 10° SW 05:39:29 18° S 05:41:18 10° SE
Cosmos 2233 Rocket 4.4 05:34:20 10° SSW 05:40:05 39° W 05:45:56 10° N
CSL-04 DEB 4.5 05:36:36 10° N 05:40:59 78° WNW 05:45:16 10° SSW
PAYLOAD A 3.9 05:39:02 10° NNE 05:44:04 88° ESE 05:48:53 10° SSW
CZ-2C R/B 3.0 05:41:00 10° NNE 05:45:31 57° E 05:49:59 10° S
Cosmos 968 Rocket 4.0 05:41:28 10° SW 05:46:14 35° WNW 05:51:04 10° N
Cosmos 2227 4.1 05:43:34 10° SSW 05:49:08 68° WNW 05:54:45 10° NNE
Cosmos 2151 3.0 05:45:12 10° NNW 05:49:22 59° W 05:53:31 10° S
GPS 2-05 Rocket1 2.6 05:50:39 20° W 05:52:48 81° N 05:56:10 10° ENE
Cosmos 1500 Rocket 4.3 05:49:42 10° NNW 05:53:39 32° W 05:57:37 10° SSW
CSL-04 Rocket 3.7 05:48:57 10° N 05:54:06 54° WNW 05:59:12 10° SSW
SMAP 3.6 05:49:38 10° NNE 05:54:15 62° E 05:58:51 10° S
Tiangong 2 2.9 05:52:25 10° SSW 05:55:14 31° SE 05:58:03 10° E
Cosmos 1356 Rocket 4.3 05:52:33 10° N 05:56:34 52° E 06:00:37 10° SSE
Cosmos 1703 3.7 05:53:09 10° N 05:57:03 64° E 06:00:56 10° SSE
Cosmos 2034 Rocket 4.0 05:51:25 10° S 05:57:35 88° E 06:03:50 10° N
Cosmos 773 Rocket 4.2 05:53:43 10° NNW 05:59:02 80° ENE 06:04:20 10° SSE
Cosmos 2237 Rocket 3.8 05:59:58 13° W 06:01:25 14° W 06:04:16 10° SW
SL-16 R/B 2.9 06:00:11 10° NW 06:05:15 35° WSW 06:10:18 10° SSW
Cosmos 1340 Rocket 2.9 06:03:23 10° NNW 06:07:13 51° W 06:11:03 10° S
Aureole 2 Rocket 4.4 06:05:06 12° WNW 06:07:21 18° W 06:10:07 10° SW
CZ-3 R/B 4.4 06:08:18 10° W 06:12:06 11° WSW 06:15:00 10° SW
Cosmos 1271 Rocket 3.8 06:09:00 10° SW 06:12:07 24° WNW 06:15:14 10° NNW
Sich 1 3.6 06:08:48 10° N 06:13:09 63° E 06:17:24 10° SSE
SJ-12 4.0 06:09:39 10° N 06:13:39 55° WNW 06:17:37 10° SSW
Cosmos 1633 Rocket 3.8 06:09:45 10° N 06:14:03 56° E 06:18:17 10° SSE
SPOT 3 Rocket 3.7 06:09:18 10° NNE 06:14:31 82° ESE 06:19:44 10° SSW
Cosmos 1184 Rocket 3.4 06:11:27 10° N 06:14:44 61° E 06:17:59 10° SSE
ISS -3.2 06:11:33 10° NW 06:14:47 70° NE 06:18:02 10° SE
USA 229 DEB 4.5 06:09:19 10° NW 06:15:40 35° WSW 06:22:04 10° S
USA 229 4.5 06:09:24 10° NW 06:15:46 35° WSW 06:22:11 10° S
DELTA 2 R/B (1) 3.6 06:13:16 10° WSW 06:18:50 80° NNW 06:24:26 10° ENE
ATLAS 2A CENTAUR R/B 3.6 06:20:31 10° WSW 06:22:27 16° SSW 06:23:45 10° SSE
Cosmos 1484 Rocket 3.2 06:21:59 10° NNE 06:25:59 71° E 06:29:56 10° S
NOSS 3-1 (A) 4.2 06:22:01 10° NNW 06:29:53 90° NW 06:38:23 10° SSE
